Terminal Aerodrome Forecast
Issued by NWS Key West, FL

Home | Current Version | Previous Version | Text Only | Print | Product List | Glossary On
Versions: 1 2 3 4 5 6 7 8 9 10 11 12 13 14 15 16 17 18 19 20 21 22 23 24 25 26 27 28 29 30 31 32 33 34 35 36 37 38 39 40 41 42 43 44 45 46 47 48
000
FTUS42 KKEY 260902 AAA
TAFEYW
TAF AMD
KEYW 260902Z 2609/2706 28012G19KT P6SM BKN040
     FM261500 30021G27KT P6SM VCSH SCT040 BKN060
     FM262200 32023KT P6SM SCT040
     FM270400 32016KT P6SM FEW035 SCT060=

USA.gov is the U.S. government's official web portal to all federal, state and local government web resources and services.